Location: Thirlby
(54.2500°N, 1.2500°W)
Time: 05:05:14
(UTC+00:00)

Daily predictions for brighter satellites

Satellite Brightness Start Highest point End
(mag) Time Altitude Azimuth Time Altitude Azimuth Time Altitude Azimuth
USA 234 4.4 03:28:32 10° ENE 03:33:58 34° SE 03:33:58 34° SE
ATLAS 5 CENTAUR R/B 4.4 03:37:50 16° E 03:37:50 16° E 03:39:21 10° ENE
CZ-4C R/B 3.1 03:54:02 66° ESE 03:54:02 66° ESE 04:00:51 10° SE
ATLAS CENTAUR R/B 4.0 04:18:23 16° NNE 04:18:23 16° NNE 04:19:44 10° NE
Cosmos 2297 Rocket 2.6 04:24:20 60° ENE 04:24:20 60° ENE 04:29:10 10° NE
Cosmos 2227 Rocket 2.5 04:27:52 66° E 04:27:52 66° E 04:33:03 10° NE
Nadezhda 4 Rocket 4.2 04:32:45 11° N 04:38:46 69° ENE 04:44:56 10° SSE
Cosmos 2219 3.7 04:40:38 51° NNE 04:40:38 51° NNE 04:44:52 10° NNE
IDEFIX/ARIANE 42P 4.5 04:35:26 10° N 04:36:47 18° N 04:36:47 18° N
Cosmos 1943 3.8 04:43:52 41° N 04:45:17 52° NE 04:50:46 10° SE
Cosmos 1461 4.0 04:51:01 42° SE 04:51:01 42° SE 04:53:55 10° SE
Cosmos 2082 Rocket 4.3 04:51:14 14° N 04:51:56 15° N 04:55:02 10° NE
NOSS 2-1 (C) 4.0 04:52:06 86° WNW 04:52:13 88° SW 04:59:04 10° SE
Okean O Rocket 4.1 04:49:25 10° NE 04:52:49 22° E 04:56:13 10° SE
PAYLOAD A 4.2 04:49:11 10° NNE 04:53:47 62° N 04:53:47 62° N
NOSS 2-1 (D) 4.0 04:55:34 82° W 04:55:47 85° SW 05:02:39 10° SE
COSMO-SKYMED 1 3.2 04:51:41 10° SSE 04:55:01 51° SE 04:55:01 51° SE
SL-16 R/B 3.4 04:59:54 28° SSW 04:59:54 28° SSW 05:02:42 10° S
Cosmos 2242 Rocket 3.9 04:58:14 63° SE 04:58:14 63° SE 05:02:07 10° SSE
Cosmos 1607 3.9 04:58:44 48° SSW 05:00:33 80° SE 05:06:45 10° NE
Cosmos 2084 Rocket 4.2 05:03:00 48° SSE 05:03:00 48° SSE 05:06:17 10° SE
Cosmos 1603 3.7 05:02:02 50° NNW 05:03:38 79° ENE 05:09:22 10° SE
Meteor 1-27 Rocket 3.7 05:03:30 66° W 05:03:39 67° W 05:09:31 10° S
Cosmos 1470 Rocket 3.8 05:00:21 10° S 05:04:48 69° E 05:09:17 10° NNE
Cosmos 407 Rocket 3.8 05:06:11 52° SSW 05:06:11 52° SSW 05:10:30 10° S
Cosmos 1703 Rocket 4.1 05:03:52 36° NNE 05:05:29 57° ENE 05:09:52 10° SSE
CZ-2C R/B 3.4 05:05:11 10° N 05:07:45 32° N 05:07:45 32° N
USA 116 4.4 05:06:28 10° SSE 05:10:51 68° ENE 05:13:27 27° N
Cosmos 1140 Rocket 3.3 05:11:47 72° W 05:12:00 73° WSW 05:17:11 10° SSE
Cosmos 2082 3.6 05:10:07 40° SSW 05:12:17 89° ESE 05:17:57 10° NNE
USA 234 3.3 05:11:30 10° ENE 05:18:04 78° SSE 05:21:19 33° SW
ATLAS 5 CENTAUR R/B 1.5 05:19:24 74° WSW 05:19:49 84° NW 05:24:54 10° NE
Cosmos 2034 Rocket 3.9 05:13:55 10° S 05:20:15 88° W 05:26:41 10° N
Cosmos 1023 Rocket 4.4 05:23:55 57° W 05:24:14 58° WSW 05:29:21 10° S
Meteor 1-18 Rocket 4.5 05:21:18 10° N 05:26:52 67° ENE 05:32:23 10° SSE
Meteor 2-11 Rocket 4.3 05:24:36 10° SSW 05:30:43 78° WNW 05:36:53 10° N
ADEOS Rocket 4.1 05:26:33 10° SE 05:33:08 48° ENE 05:39:06 10° N
STARLINK 1044 4.4 05:35:58 28° SSE 05:35:58 28° SSE 05:37:45 10° SE
CZ-4B DEB 4.5 05:30:39 10° NNE 05:36:11 71° ESE 05:41:42 10° S
STARLINK 1050 3.8 05:37:01 43° S 05:37:01 43° S 05:39:55 10° SE
Cosmos 2195 Rocket 4.4 05:31:30 10° NNW 05:37:53 87° W 05:44:15 10° S
Cosmos 1484 Rocket 2.6 05:34:46 10° N 05:38:46 73° WNW 05:42:41 10° SSW
MSX 4.4 05:33:46 10° N 05:38:47 36° NW 05:38:47 36° NW
STARLINK 1055 3.8 05:39:36 43° S 05:39:36 43° S 05:42:36 10° SE
PSLV R/B 3.7 05:35:37 10° NNE 05:39:42 76° WNW 05:43:48 10° SSW
STARLINK 1022 3.8 05:41:19 43° S 05:41:19 43° S 05:44:22 10° SE
CZ-4C R/B 3.4 05:39:15 33° W 05:41:15 39° WSW 05:48:34 10° S
Cosmos 1092 Rocket 3.9 05:36:34 10° NNW 05:42:45 70° W 05:48:50 10° S
SKYMED 2 4.0 05:40:08 10° S 05:43:42 40° WSW 05:43:42 40° WSW
STARLINK 1042 3.8 05:44:37 42° SSW 05:44:37 42° SSW 05:47:47 10° SE
STARLINK 1056 3.8 05:47:16 41° SSW 05:47:18 41° SSW 05:50:31 10° SE
SJ-12 3.8 05:44:38 10° NNE 05:48:49 80° WNW 05:52:56 10° SSW
STARLINK 1054 3.8 05:49:56 40° SSW 05:50:04 40° SSW 05:53:16 10° SE
Cosmos 1624 Rocket 3.9 05:45:08 10° SSW 05:50:28 85° WNW 05:55:52 10° NNE
STARLINK 1062 3.8 05:52:24 38° SW 05:52:38 39° SSW 05:55:50 10° SE
Cosmos 1464 Rocket 4.2 05:48:31 10° SW 05:54:23 43° WNW 06:00:13 10° N
Cosmos 2263 Rocket 3.2 05:50:04 10° S 05:55:23 47° ESE 06:00:42 10° NE
Cosmos 2056 Rocket 3.3 05:50:19 10° SSW 05:55:26 81° WNW 06:00:37 10° NNE
STARLINK 1053 3.9 05:55:18 37° SW 05:55:38 38° SSW 05:58:49 10° SE
Cosmos 676 Rocket 4.3 05:54:14 33° WNW 05:55:58 44° WSW 06:00:57 10° S
ATLAS CENTAUR R/B 2.9 05:54:34 21° NNW 05:56:28 28° NNE 06:00:08 10° E
STARLINK 1061 3.9 05:57:38 35° SW 05:58:03 37° SSW 06:01:13 10° SE
STARLINK 1067 3.9 06:00:18 34° SW 06:00:49 36° SSW 06:03:58 10° SE
Cosmos 2084 4.4 06:01:18 30° NW 06:02:14 33° NNW 06:06:15 10° NE
STARLINK 1058 4.0 06:02:53 32° SW 06:03:29 35° SSW 06:06:37 10° SE
STARLINK 1043 4.1 06:05:30 30° SW 06:06:12 34° SSW 06:09:19 10° SE
ALOS 2.2 06:01:35 10° N 06:06:15 71° WNW 06:10:55 10° SSW
Cosmos 1954 Rocket 4.5 06:05:30 28° WNW 06:07:32 39° WSW 06:12:24 10° S
Cosmos 2297 Rocket 2.9 06:06:11 27° WNW 06:08:03 33° NW 06:13:11 10° NNE
Cosmos 1833 Rocket 4.5 06:03:58 10° NNW 06:08:14 22° NNE 06:12:36 10° E
STARLINK 1065 4.1 06:08:04 29° SW 06:08:51 33° SSW 06:11:57 10° SE
Okean 1-7 3.3 06:06:28 22° NNW 06:08:58 46° W 06:13:10 10° SSW
Cosmos 1933 Rocket 3.9 06:06:38 10° SW 06:10:45 41° WNW 06:14:54 10° N
CZ-4B R/B 3.3 06:05:12 10° NNE 06:10:48 86° ESE 06:16:26 10° SSW
STARLINK 1063 4.2 06:10:50 27° WSW 06:11:43 32° SSW 06:14:48 10° SE
Cosmos 2227 Rocket 2.9 06:09:44 25° W 06:11:55 34° NW 06:17:03 10° NNE
Cosmos 1346 Rocket 3.5 06:10:17 10° S 06:14:03 53° E 06:17:51 10° NNE
STARLINK 1064 4.3 06:13:21 26° WSW 06:14:19 31° SSW 06:17:24 10° SE
Meteor 1-25 Rocket 4.1 06:09:18 10° SSW 06:14:54 77° WNW 06:20:38 10° NNE
PAYLOAD B 4.1 06:10:00 10° NNE 06:15:30 72° WNW 06:21:00 10° SSW
STARLINK 1041 4.3 06:15:59 25° WSW 06:17:03 30° SSW 06:20:06 10° SE
Cosmos 2221 Rocket 3.5 06:12:57 10° NNW 06:17:24 79° W 06:21:48 10° S
Cosmos 1420 Rocket 4.1 06:12:12 10° SSW 06:17:24 80° ESE 06:22:37 10° NNE
FENGYUN 3A 3.6 06:12:56 10° NNE 06:18:19 66° WNW 06:23:38 10° SSW
CZ-4 R/B 4.4 06:16:08 10° NE 06:18:30 15° E 06:20:52 10° SE
IDEFIX/ARIANE 42P 4.5 06:16:33 10° NNW 06:17:35 12° NNW 06:17:35 12° NNW
STARLINK 1038 4.4 06:18:39 23° WSW 06:19:49 29° SSW 06:22:50 10° SSE
Cosmos 1741 Rocket 4.0 06:18:01 16° NNW 06:22:15 64° WSW 06:27:24 10° SSE
STARLINK 1046 4.4 06:21:17 22° WSW 06:22:33 28° SSW 06:25:33 10° SSE
Cosmos 2219 4.3 06:22:35 20° WNW 06:24:22 24° NNW 06:28:53 10° NNE
H-2A R/B 4.4 06:21:48 10° NNW 06:23:03 14° NNW 06:23:03 14° NNW
STARLINK 1039 4.5 06:23:57 21° WSW 06:25:18 28° SSW 06:28:16 10° SSE
STARLINK 1045 4.5 06:24:41 21° WSW 06:26:04 27° SSW 06:29:02 10° SSE
MOS 1-B 4.5 06:22:25 10° N 06:28:01 51° WNW 06:33:35 10° SW
Cosmos 1461 4.4 06:27:27 18° W 06:28:16 19° WSW 06:31:22 10° SSW
Meteor 1-19 Rocket 4.2 06:23:36 10° NNW 06:29:00 59° W 06:34:25 10° S
Cosmos 1943 3.7 06:25:42 19° NW 06:29:15 38° WSW 06:34:24 10° S
Cosmos 2266 Rocket 4.3 06:23:02 10° N 06:29:21 72° ENE 06:35:31 10° SSE
Okean O Rocket 1.6 06:25:13 10° N 06:29:32 58° WNW 06:33:51 10° SSW
H-2A R/B 3.2 06:25:53 10° NNE 06:29:35 63° ESE 06:33:18 10° S
COSMO-SKYMED 1 4.1 06:29:49 10° SW 06:32:14 17° W 06:32:14 17° W
Envisat 4.4 06:30:28 10° NNE 06:35:18 41° E 06:40:06 10° SSE
Helios 1A Rocket 3.0 06:33:17 10° N 06:37:14 50° WNW 06:41:08 10° SW
NOAA 6 4.0 06:32:38 10° N 06:37:41 59° WNW 06:42:42 10° SW
Cosmos 2082 Rocket 3.9 06:33:38 10° NNW 06:38:11 24° NNE 06:42:42 10° E
Okean 1 4.2 06:38:20 15° NW 06:40:54 29° W 06:44:21 10° SSW
Okean-O 3.8 06:36:57 10° NNE 06:41:15 46° E 06:45:31 10° S
Cosmos 1452 Rocket 3.5 06:36:57 10° SSW 06:42:15 85° WNW 06:47:36 10° NNE
Cosmos 1932 4.5 06:35:55 10° SW 06:42:18 83° NW 06:48:51 10° NE
Cosmos 1850 Rocket 4.4 06:39:35 12° NW 06:44:13 44° WSW 06:49:16 10° S
Meteor 2-13 Rocket 4.5 06:40:03 10° NNW 06:46:07 65° W 06:52:11 10° S
Cosmos 2026 Rocket 4.5 06:40:51 10° NNW 06:46:23 37° W 06:51:57 10° SSW
CZ-2C R/B 3.9 06:44:55 10° NNW 06:47:07 14° NW 06:47:07 14° NW
Meteor 2-4 Rocket 3.7 06:41:55 10° NNW 06:47:29 64° W 06:52:51 10° S
Cosmos 1607 4.4 06:42:54 12° W 06:48:20 41° NNW 06:54:12 10° NE
AQUARIUS 4.3 06:44:20 10° NNE 06:48:52 84° ESE 06:53:22 10° SSW
Cosmos 724 4.4 06:44:28 10° WSW 06:50:27 62° NW 06:56:19 10° NE
Cosmos 405 2.9 06:55:31 10° NNW 06:59:05 69° W 07:02:37 10° S
Cosmos 1733 Rocket 3.0 06:54:49 10° S 06:59:09 89° E 07:03:31 10° NNE
Feng Yun 1-1 Rocket 4.3 06:53:48 10° NNE 06:59:21 88° ESE 07:05:01 10° SSW
USA 234 3.3 06:54:37 10° ENE 07:01:08 73° N 07:07:38 10° W
Cosmos 1655 Rocket 4.1 06:55:27 10° NNW 07:01:29 54° W 07:07:30 10° SSW
Cosmos 2279 Rocket 4.0 06:55:27 10° SSW 07:01:35 61° WNW 07:07:46 10° N
ATLAS 5 CENTAUR R/B 2.6 07:00:57 11° W 07:05:06 35° NNW 07:10:01 10° NE
Cosmos 1869 Rocket 4.2 07:01:56 10° SW 07:05:49 32° WNW 07:09:45 10° N
CZ-2C R/B 3.4 07:00:44 10° SE 07:05:51 50° ENE 07:10:53 10° N
Cosmos 1634 Rocket 4.4 07:00:20 10° SW 07:06:07 39° WNW 07:11:54 10° N
Meteor 1-13 Rocket 4.3 07:00:53 10° NNW 07:06:19 60° W 07:11:46 10° S
Cosmos 1536 3.3 07:05:50 10° S 07:09:52 68° E 07:13:57 10° NNE
Cosmos 1066 Rocket 4.5 07:04:10 10° NNW 07:09:53 75° ENE 07:15:24 10° SSE
NOAA 12 4.2 07:06:09 10° NNE 07:11:27 83° ESE 07:16:42 10° SSW
CORIOLIS 4.2 07:06:22 10° NNE 07:11:50 82° WNW 07:17:14 10° SSW
Okean 3 4.4 07:13:23 10° NNW 07:16:58 28° W 07:20:32 10° SSW
Cosmos 1500 3.2 07:14:32 10° SSW 07:18:21 66° WNW 07:22:12 10° N
ADEOS Rocket 3.6 07:12:02 10° S 07:18:44 45° W 07:24:49 10° NNW
Cosmos 1975 Rocket 3.7 07:15:29 10° N 07:19:51 57° ENE 07:24:14 10° SSE
Cosmos 1340 3.4 07:17:34 10° SW 07:20:56 30° WNW 07:24:20 10° N
Cosmos 1674 Rocket 3.9 07:18:26 10° NNW 07:22:37 45° W 07:26:45 10° SSW
Cosmos 839 Rocket 4.5 07:17:07 10° NW 07:23:21 66° NE 07:30:35 10° ESE
YAOGAN 1 3.6 07:21:08 10° NNE 07:25:24 51° E 07:29:38 10° S
SAR-Lupe-2 4.4 07:22:40 10° SSW 07:25:58 33° W 07:29:17 10° NNW
Cosmos 968 Rocket 3.9 07:22:04 10° NNW 07:27:15 64° ENE 07:32:21 10° SE
USA 81 4.1 07:24:26 10° NNW 07:29:40 62° W 07:34:51 10° S
